Champaign, IL

2:41 PM CDT on July 23, 2017 (GMT -0500)
Univ Of Illinois-Willard

Weather History for KCMI - January, 2013

Change the Weather History Date:

Tuesday, January 29, 2013

  Actual Average Record
Temperature  
Mean Temperature 57 °F 26 °F  
Max Temperature 61 °F 34 °F 61 °F (2013)
Min Temperature 52 °F 17 °F 0 °F (2004)
Degree Days  
Heating Degree Days 8 39  
Month to date heating degree days 1056 1153  
Since 1 July heating degree days 3109 3434  
Cooling Degree Days 0 0  
Month to date cooling degree days 0 0  
Year to date cooling degree days 0 0  
Growing Degree Days 6 (Base 50)    
Moisture  
Dew Point 55 °F    
Average Humidity 92    
Maximum Humidity 100    
Minimum Humidity 84    
Precipitation  
Precipitation 0.81 in 0.04 in 0.81 in (2013)
Month to date precipitation 2.17 1.94  
Year to date precipitation 2.17 1.94  
Sea Level Pressure  
Sea Level Pressure 29.63 in    
Wind  
Wind Speed 18 mph (South)    
Max Wind Speed 28 mph    
Max Gust Speed 33 mph    
Visibility 5 miles    
Events Rain , Thunderstorm    
T = Trace of Precipitation, MM = Missing Value Source: NWS Daily Summary

Daily Weather History Graph

Daily Weather History Graph

Search for Another Location

Airport or City:

Trip Planner

Search our weather history database for the weather conditions in past years. The results will help you decide how hot, cold, wet, or windy it might be!

Date:

Astronomy

Jan. 29, 2013 Rise Set
Actual Time 7:04 AM CST 5:08 PM CST
Civil Twilight 6:35 AM CST 5:37 PM CST
Nautical Twilight 6:02 AM CST 6:10 PM CST
Astronomical Twilight 5:30 AM CST 6:42 PM CST
Moon 8:04 PM CST (1/29) 8:00 AM CST (1/29)
Length of Visible Light 11h 02m
Length of Day
10h 04m
Waning Gibbous, 93% of the Moon is Illuminated
Jan 29
Waning Gibbous
Feb 3
Last Quarter
Feb 10
New
Feb 17
First Quarter
Feb 25
Full

Hourly Weather History & Observations

Time (CST) Temp. Dew Point Humidity Pressure Visibility Wind Dir Wind Speed Gust Speed Precip Events Conditions
12:01 AM 55.4 °F 55.4 °F 100% 29.88 in 3.0 mi South 18.4 mph - N/A   Overcast
12:53 AM 55.9 °F 55.0 °F 97% 29.86 in 3.0 mi South 13.8 mph 25.3 mph N/A   Overcast
1:16 AM 55.4 °F 55.4 °F 100% 29.85 in 3.0 mi South 15.0 mph - N/A   Overcast
1:53 AM 55.0 °F 54.0 °F 96% 29.84 in 3.0 mi South 18.4 mph - N/A   Overcast
2:24 AM 55.4 °F 53.6 °F 94% 29.82 in 3.0 mi South 20.7 mph - N/A   Overcast
2:53 AM 55.9 °F 55.0 °F 97% 29.82 in 4.0 mi South 23.0 mph 28.8 mph N/A   Overcast
3:25 AM 55.4 °F 55.4 °F 100% 29.81 in 4.0 mi South 17.3 mph - N/A   Overcast
3:53 AM 55.9 °F 54.0 °F 93% 29.81 in 4.0 mi South 19.6 mph - N/A   Overcast
4:53 AM 55.0 °F 54.0 °F 96% 29.80 in 4.0 mi South 16.1 mph - 0.00 in   Overcast
6:05 AM 55.4 °F 53.6 °F 94% 29.79 in 4.0 mi South 19.6 mph - N/A   Overcast
6:53 AM 55.9 °F 54.0 °F 93% 29.77 in 5.0 mi South 17.3 mph - N/A   Overcast
7:53 AM 55.9 °F 55.0 °F 97% 29.78 in 3.0 mi South 17.3 mph - N/A   Overcast
8:53 AM 57.0 °F 55.9 °F 96% 29.76 in 3.0 mi South 18.4 mph - N/A   Overcast
9:13 AM 57.2 °F 55.4 °F 94% 29.75 in 3.0 mi South 20.7 mph 26.5 mph N/A   Overcast
9:22 AM 57.2 °F 55.4 °F 94% 29.75 in 3.0 mi South 18.4 mph 27.6 mph N/A   Overcast
9:29 AM 57.2 °F 55.4 °F 94% 29.75 in 4.0 mi South 20.7 mph 27.6 mph N/A   Overcast
9:53 AM 59.0 °F 57.0 °F 93% 29.75 in 4.0 mi South 19.6 mph 27.6 mph N/A   Overcast
10:53 AM 59.0 °F 57.0 °F 93% 29.74 in 5.0 mi South 18.4 mph - N/A   Overcast
11:30 AM 60.8 °F 57.2 °F 88% 29.71 in 6.0 mi South 20.7 mph 27.6 mph N/A   Overcast
11:53 AM 60.1 °F 57.0 °F 90% 29.70 in 6.0 mi South 19.6 mph 28.8 mph N/A   Overcast
12:53 PM 60.1 °F 57.0 °F 90% 29.66 in 5.0 mi South 18.4 mph - N/A   Overcast
1:08 PM 60.8 °F 57.2 °F 88% 29.65 in 6.0 mi South 16.1 mph - N/A   Overcast
1:53 PM 60.1 °F 57.9 °F 93% 29.62 in 6.0 mi South 16.1 mph - N/A   Overcast
2:53 PM 61.0 °F 57.0 °F 87% 29.60 in 6.0 mi South 24.2 mph 31.1 mph N/A   Overcast
3:09 PM 60.8 °F 57.2 °F 88% 29.60 in 3.0 mi South 18.4 mph - N/A   Overcast
3:30 PM 59.0 °F 57.2 °F 94% 29.60 in 2.0 mi South 18.4 mph - 0.00 in Rain Light Rain
3:53 PM 59.0 °F 57.0 °F 93% 29.58 in 2.0 mi SSE 18.4 mph - 0.00 in Rain Light Rain
4:06 PM 59.0 °F 57.2 °F 94% 29.57 in 6.0 mi SSE 19.6 mph 25.3 mph 0.00 in   Overcast
4:53 PM 60.1 °F 55.9 °F 86% 29.54 in 7.0 mi SSE 18.4 mph 25.3 mph 0.00 in   Overcast
5:30 PM 60.8 °F 57.2 °F 88% 29.51 in 10.0 mi SSE 21.9 mph 26.5 mph N/A   Overcast
5:53 PM 60.1 °F 57.0 °F 90% 29.50 in 10.0 mi SSE 19.6 mph 27.6 mph N/A   Overcast
6:28 PM 60.8 °F 55.4 °F 82% 29.48 in 10.0 mi SSE 25.3 mph 33.4 mph N/A   Mostly Cloudy
6:53 PM 60.1 °F 55.9 °F 86% 29.47 in 10.0 mi SSE 25.3 mph 33.4 mph N/A   Mostly Cloudy
7:00 PM 60.8 °F 55.4 °F 82% 29.46 in 10.0 mi SSE 24.2 mph 33.4 mph N/A Thunderstorm Mostly Cloudy
7:31 PM 59.0 °F 57.2 °F 94% 29.47 in 3.0 mi South 19.6 mph 28.8 mph 0.07 in Rain , Thunderstorm Light Rain
7:47 PM 59.0 °F 57.2 °F 94% 29.49 in 2.5 mi SW 12.7 mph 28.8 mph 0.12 in Rain Rain
7:51 PM 57.2 °F 57.2 °F 100% 29.50 in 3.0 mi SW 13.8 mph 21.9 mph 0.14 in Rain Rain
7:53 PM 57.9 °F 57.0 °F 97% 29.49 in 3.0 mi SW 16.1 mph 21.9 mph 0.14 in Rain Rain
8:00 PM 57.2 °F 57.2 °F 100% 29.49 in 5.0 mi West 15.0 mph 23.0 mph 0.02 in Rain Rain
8:10 PM 55.4 °F 53.6 °F 94% 29.49 in 6.0 mi NNW 19.6 mph 29.9 mph 0.03 in Rain Rain
8:27 PM 53.6 °F 51.8 °F 94% 29.48 in 7.0 mi North 18.4 mph - 0.04 in Rain Light Rain
8:53 PM 54.0 °F 52.0 °F 93% 29.42 in 9.0 mi North 20.7 mph 27.6 mph 0.07 in Rain Light Rain
9:33 PM 53.6 °F 51.8 °F 94% 29.45 in 2.0 mi NW 13.8 mph - 0.18 in Rain Heavy Rain
9:53 PM 53.1 °F 52.0 °F 96% 29.47 in 3.0 mi NW 11.5 mph - 0.28 in Rain Heavy Rain
10:23 PM 53.6 °F 51.8 °F 94% 29.48 in 4.0 mi NW 11.5 mph - 0.13 in Rain , Thunderstorm Rain
10:51 PM 51.8 °F 51.8 °F 100% 29.48 in 4.0 mi WNW 9.2 mph - 0.22 in Rain Rain
10:53 PM 52.0 °F 52.0 °F 100% 29.48 in 4.0 mi WNW 8.1 mph - 0.23 in Rain Heavy Rain
11:53 PM 52.0 °F 51.1 °F 97% 29.46 in 7.0 mi NW 6.9 mph - 0.09 in Rain Light Rain